Weather History for KUTA - January, 2014

Change the Weather History Date:

Monday, January 27, 2014

  Actual Average (KMEM) Record (KMEM)
Temperature  
Mean Temperature 34 °F 42 °F  
Max Temperature 44 °F 51 °F 74 °F (1975)
Min Temperature 23 °F 33 °F -1 °F (1940)
Degree Days  
Heating Degree Days 32 23  
Month to date heating degree days 646  
Since 1 July heating degree days 1810  
Cooling Degree Days 0 0  
Month to date cooling degree days 0  
Year to date cooling degree days 0  
Moisture  
Dew Point 12 °F    
Average Humidity 47    
Maximum Humidity 87    
Minimum Humidity 27    
Precipitation  
Precipitation 0.00 in 0.13 in 1.95 in (1957)
Month to date precipitation 3.45  
Year to date precipitation 3.45  
Snow  
Snow 0.00 in 0.00 in 1.00 in (2000)
Month to date snowfall 1.6  
Since 1 July snowfall 1.8  
Snow Depth -    
Sea Level Pressure  
Sea Level Pressure 30.21 in    
Wind  
Wind Speed 15 mph (NNE)    
Max Wind Speed 30 mph    
Max Gust Speed 38 mph    
Visibility 10 miles    
Events      
T = Trace of Precipitation, MM = Missing Value Source: NWS Daily Summary

Daily Weather History Graph

Daily Weather History Graph

Search for Another Location

Airport or City:

Trip Planner

Search our weather history database for the weather conditions in past years. The results will help you decide how hot, cold, wet, or windy it might be!

Date:

Astronomy

Jan. 27, 2014 Rise Set
Actual Time 7:02 AM CST 5:25 PM CST
Civil Twilight 6:36 AM CST 5:52 PM CST
Nautical Twilight 6:05 AM CST 6:22 PM CST
Astronomical Twilight 5:35 AM CST 6:52 PM CST
Moon 3:42 AM CST (1/27) 2:13 PM CST (1/27)
Length of Visible Light 11h 16m
Length of Day
10h 22m
Waning Crescent, 14% of the Moon is Illuminated
Jan 27
Waning Crescent
Jan 30
New
Feb 6
First Quarter
Feb 14
Full
Feb 22
Last Quarter

Hourly Weather History & Observations

Time (CST) Temp. Windchill Dew Point Humidity Pressure Visibility Wind Dir Wind Speed Gust Speed Precip Events Conditions
12:15 AM 44.6 °F 43.1 °F 33.8 °F 66% 29.84 in 10.0 mi South 3.5 mph - N/A   Clear
12:35 AM 44.6 °F 42.2 °F 33.8 °F 66% 29.84 in 10.0 mi South 4.6 mph - N/A   Clear
12:55 AM 41.0 °F 39.0 °F 32.0 °F 70% 29.85 in 10.0 mi South 3.5 mph - N/A   Clear
1:15 AM 39.2 °F 37.0 °F 33.8 °F 81% 29.86 in 10.0 mi SSE 3.5 mph - N/A   Clear
1:35 AM 39.2 °F - 32.0 °F 75% 29.86 in 10.0 mi Calm Calm - N/A   Clear
1:55 AM 37.4 °F - 32.0 °F 81% 29.86 in 10.0 mi Calm Calm - N/A   Clear
2:15 AM 37.4 °F 34.9 °F 32.0 °F 81% 29.86 in 10.0 mi SSE 3.5 mph - N/A   Clear
2:35 AM 37.4 °F 34.9 °F 33.8 °F 87% 29.87 in 10.0 mi SSE 3.5 mph - N/A   Clear
2:55 AM 35.6 °F - 32.0 °F 87% 29.88 in 10.0 mi Calm Calm - N/A   Clear
3:15 AM 35.6 °F - 32.0 °F 87% 29.89 in 10.0 mi Calm Calm - N/A   Clear
3:35 AM 42.8 °F 35.1 °F 35.6 °F 76% 29.92 in 10.0 mi NNW 16.1 mph 25.3 mph N/A   Clear
3:55 AM 42.8 °F 33.8 °F 33.8 °F 70% 29.94 in 10.0 mi North 21.9 mph 29.9 mph N/A   Clear
4:15 AM 42.8 °F 32.3 °F 32.0 °F 66% 29.96 in 10.0 mi North 29.9 mph 35.7 mph N/A   Clear
4:35 AM 41.0 °F 29.8 °F 30.2 °F 65% 29.99 in 10.0 mi North 29.9 mph 38.0 mph N/A   Clear
4:55 AM 37.4 °F 25.9 °F 28.4 °F 70% 30.01 in 10.0 mi North 25.3 mph 34.5 mph N/A   Clear
5:15 AM 37.4 °F 26.4 °F 26.6 °F 65% 30.02 in 10.0 mi North 23.0 mph 34.5 mph N/A   Clear
5:35 AM 35.6 °F 24.0 °F 26.6 °F 70% 30.04 in 10.0 mi North 23.0 mph 33.4 mph N/A   Clear
5:55 AM 35.6 °F 23.7 °F 26.6 °F 70% 30.06 in 10.0 mi North 24.2 mph 28.8 mph N/A   Clear
6:15 AM 33.8 °F 20.5 °F 24.8 °F 70% 30.09 in 10.0 mi NNE 27.6 mph 35.7 mph N/A   Clear
6:35 AM 33.8 °F 21.0 °F 23.0 °F 65% 30.12 in 10.0 mi North 25.3 mph 31.1 mph N/A   Clear
6:55 AM 32.0 °F 17.9 °F 23.0 °F 69% 30.14 in 10.0 mi North 28.8 mph 35.7 mph N/A   Clear
7:15 AM 32.0 °F 18.4 °F 21.2 °F 64% 30.16 in 10.0 mi North 26.5 mph 38.0 mph N/A   Clear
7:35 AM 32.0 °F 19.5 °F 21.2 °F 64% 30.18 in 10.0 mi NNE 21.9 mph 31.1 mph N/A   Clear
7:55 AM 32.0 °F 19.5 °F 15.8 °F 51% 30.19 in 10.0 mi North 21.9 mph 32.2 mph N/A   Clear
8:15 AM 32.0 °F 18.6 °F 14.0 °F 48% 30.21 in 10.0 mi North 25.3 mph 36.8 mph N/A   Clear
8:35 AM 32.0 °F 18.4 °F 14.0 °F 48% 30.22 in 10.0 mi NNE 26.5 mph 35.7 mph N/A   Clear
8:55 AM 32.0 °F 17.6 °F 12.2 °F 44% 30.24 in 10.0 mi NNE 29.9 mph 35.7 mph N/A   Clear
9:15 AM 32.0 °F 18.6 °F 10.4 °F 41% 30.25 in 10.0 mi North 25.3 mph 32.2 mph N/A   Clear
9:35 AM 32.0 °F 18.4 °F 8.6 °F 38% 30.25 in 10.0 mi North 26.5 mph 35.7 mph N/A   Clear
9:55 AM 32.0 °F 19.2 °F 8.6 °F 38% 30.27 in 10.0 mi North 23.0 mph 31.1 mph N/A   Clear
10:15 AM 32.0 °F 18.4 °F 6.8 °F 35% 30.28 in 10.0 mi North 26.5 mph 31.1 mph N/A   Clear
10:35 AM 32.0 °F 18.9 °F 5.0 °F 32% 30.28 in 10.0 mi North 24.2 mph 33.4 mph N/A   Clear
10:55 AM 32.0 °F 18.4 °F 3.2 °F 30% 30.28 in 10.0 mi North 26.5 mph 33.4 mph N/A   Clear
11:15 AM 32.0 °F 18.6 °F 3.2 °F 30% 30.27 in 10.0 mi North 25.3 mph 32.2 mph N/A   Clear
11:35 AM 32.0 °F 18.4 °F 1.4 °F 27% 30.28 in 10.0 mi North 26.5 mph 32.2 mph N/A   Clear
11:55 AM 32.0 °F 18.1 °F 1.4 °F 27% 30.28 in 10.0 mi North 27.6 mph 31.1 mph N/A   Clear
12:15 PM 32.0 °F 18.9 °F 1.4 °F 27% 30.28 in 10.0 mi North 24.2 mph 31.1 mph N/A   Clear
12:35 PM 32.0 °F 19.2 °F 1.4 °F 27% 30.29 in 10.0 mi North 23.0 mph 28.8 mph N/A   Clear
12:55 PM 32.0 °F 18.6 °F 1.4 °F 27% 30.28 in 10.0 mi NNE 25.3 mph 28.8 mph N/A   Clear
1:15 PM 32.0 °F 19.5 °F 1.4 °F 27% 30.28 in 10.0 mi North 21.9 mph 26.5 mph N/A   Clear
1:35 PM 32.0 °F 18.4 °F 1.4 °F 27% 30.28 in 10.0 mi North 26.5 mph 32.2 mph N/A   Clear
1:55 PM 32.0 °F 18.4 °F 1.4 °F 27% 30.28 in 10.0 mi North 26.5 mph - N/A   Clear
2:15 PM 32.0 °F 18.6 °F 1.4 °F 27% 30.28 in 10.0 mi North 25.3 mph 32.2 mph N/A   Clear
2:35 PM 30.2 °F 16.5 °F 1.4 °F 29% 30.28 in 10.0 mi North 24.2 mph 28.8 mph N/A   Clear
2:55 PM 30.2 °F 17.1 °F 1.4 °F 29% 30.29 in 10.0 mi North 21.9 mph 25.3 mph N/A   Clear
3:15 PM 28.4 °F 15.4 °F 1.4 °F 31% 30.30 in 10.0 mi North 19.6 mph 28.8 mph N/A   Clear
3:35 PM 28.4 °F 14.7 °F 1.4 °F 31% 30.30 in 10.0 mi North 21.9 mph 28.8 mph N/A   Clear
3:55 PM 28.4 °F 14.7 °F 1.4 °F 31% 30.31 in 10.0 mi North 21.9 mph 25.3 mph N/A   Clear
4:15 PM 28.4 °F 15.4 °F 1.4 °F 31% 30.31 in 10.0 mi North 19.6 mph 28.8 mph N/A   Clear
4:35 PM 26.6 °F 12.4 °F 1.4 °F 34% 30.32 in 10.0 mi NNE 21.9 mph 28.8 mph N/A   Clear
4:55 PM 26.6 °F 13.1 °F 1.4 °F 34% 30.33 in 10.0 mi North 19.6 mph - N/A   Clear
5:15 PM 26.6 °F 12.4 °F 1.4 °F 34% 30.34 in 10.0 mi North 21.9 mph 28.8 mph N/A   Clear
5:35 PM 26.6 °F 13.1 °F 1.4 °F 34% 30.36 in 10.0 mi North 19.6 mph 26.5 mph N/A   Clear
5:55 PM 24.8 °F 11.1 °F 1.4 °F 36% 30.36 in 10.0 mi NNE 18.4 mph 24.2 mph N/A   Clear
6:15 PM 24.8 °F 11.5 °F 1.4 °F 36% 30.36 in 10.0 mi North 17.3 mph 21.9 mph N/A   Clear
6:35 PM 24.8 °F 10.3 °F 3.2 °F 40% 30.37 in 10.0 mi North 20.7 mph - N/A   Clear
6:55 PM 24.8 °F 10.7 °F 3.2 °F 40% 30.38 in 10.0 mi North 19.6 mph 23.0 mph N/A   Clear
7:15 PM 24.8 °F 11.1 °F 3.2 °F 40% 30.39 in 10.0 mi North 18.4 mph 25.3 mph N/A   Clear
7:35 PM 24.8 °F 11.9 °F 3.2 °F 40% 30.39 in 10.0 mi North 16.1 mph 21.9 mph N/A   Clear
7:55 PM 23.0 °F 8.7 °F 3.2 °F 43% 30.38 in 10.0 mi NNE 18.4 mph - N/A   Scattered Clouds
8:15 PM 23.0 °F 7.6 °F 1.4 °F 39% 30.38 in 10.0 mi NNE 21.9 mph 25.3 mph N/A   Scattered Clouds
8:35 PM 23.0 °F 8.0 °F 1.4 °F 39% 30.39 in 10.0 mi North 20.7 mph 24.2 mph N/A   Clear
8:55 PM 23.0 °F 10.6 °F 1.4 °F 39% 30.40 in 10.0 mi North 13.8 mph - N/A   Clear
9:15 PM 23.0 °F 10.1 °F 1.4 °F 39% 30.40 in 10.0 mi North 15.0 mph - N/A   Clear
9:35 PM 23.0 °F 11.1 °F 1.4 °F 39% 30.39 in 10.0 mi NNE 12.7 mph - N/A   Clear
9:55 PM 23.0 °F 9.2 °F 1.4 °F 39% 30.39 in 10.0 mi NNE 17.3 mph 20.7 mph N/A   Scattered Clouds
10:15 PM 23.0 °F 9.2 °F -0.4 °F 36% 30.39 in 10.0 mi NNE 17.3 mph - N/A   Scattered Clouds
10:35 PM 23.0 °F 10.6 °F -0.4 °F 36% 30.40 in 10.0 mi NNE 13.8 mph 23.0 mph N/A   Scattered Clouds
10:55 PM 23.0 °F 10.1 °F -0.4 °F 36% 30.40 in 10.0 mi NNE 15.0 mph 20.7 mph N/A   Scattered Clouds
11:15 PM 23.0 °F 9.2 °F -0.4 °F 36% 30.40 in 10.0 mi NNE 17.3 mph - N/A   Scattered Clouds
11:35 PM 23.0 °F 8.7 °F -0.4 °F 36% 30.41 in 10.0 mi NNE 18.4 mph - N/A   Mostly Cloudy
11:55 PM 23.0 °F 9.2 °F -0.4 °F 36% 30.40 in 10.0 mi NNE 17.3 mph - N/A   Mostly Cloudy